Location: Bergstetten
(48.8006°N, 10.8197°E)
Time: 18:15:33
(UTC+00:00)

Daily predictions for brighter satellites

Satellite Brightness Start Highest point End
(mag) Time Altitude Azimuth Time Altitude Azimuth Time Altitude Azimuth
Lacrosse 5 3.5 16:33:35 10° WNW 16:38:16 39° SW 16:42:55 10° SSE
SeaSat 1 3.0 16:33:50 10° NNE 16:38:42 58° NW 16:43:32 10° SW
Cosmos 158 Rocket 4.1 16:34:04 10° NNW 16:39:29 83° ENE 16:44:53 10° SSE
Meteor 1-24 Rocket 4.2 16:35:56 10° SSW 16:41:10 60° WNW 16:46:27 10° N
NOSS 3-1 (A) 4.2 16:35:34 10° NW 16:42:38 55° NE 16:50:53 10° ESE
AQUARIUS 4.2 16:39:26 10° SSE 16:43:56 90° ENE 16:48:28 10° NNW
Cosmos 2278 Rocket 3.6 16:40:28 10° SE 16:44:08 18° E 16:47:48 10° ENE
ERS-2 3.9 16:46:42 10° ENE 16:48:45 14° E 16:50:48 10° SE
ATLAS 2AS CENTAUR R/B 4.2 16:42:01 10° W 16:48:57 32° NNW 16:55:40 10° NE
Aureole 3 Rocket 3.8 16:46:32 10° NNE 16:49:00 20° ENE 16:51:48 10° ESE
CZ-4B R/B 3.5 16:45:20 10° SSE 16:50:56 82° WSW 16:56:39 10° NNW
CORIOLIS 4.3 16:47:03 10° SSE 16:52:27 82° WSW 16:57:51 10° NNW
TELKOM 3 2.8 16:50:52 10° W 16:52:59 60° N 16:54:58 13° E
COSMO-SKYMED 1 3.3 16:51:10 10° NNE 16:55:09 34° E 16:59:06 10° SSE
Cosmos 1340 3.5 16:52:20 10° SSE 16:55:35 28° E 16:58:51 10° NNE
Cosmos-2242 4.1 16:52:57 10° NNE 16:56:24 23° ENE 16:59:50 10° ESE
Okean 1-7 Rocket 3.7 16:52:09 10° S 16:56:42 88° ESE 17:01:19 10° N
Landsat 5 3.7 16:53:08 10° N 16:56:59 64° WNW 17:00:46 10° SSW
Cosmos 44 3.4 16:52:35 10° SSW 16:57:21 66° ESE 17:02:28 10° NE
CZ-2C R/B 3.4 16:55:29 10° SE 17:00:46 51° ENE 17:06:19 10° N
Iridium 4 Rocket 4.1 16:58:08 10° N 17:03:09 36° ENE 17:07:45 10° SE
ISS -3.5 17:00:10 10° W 17:03:32 59° N 17:06:14 15° ENE
Cosmos 1455 2.3 17:00:04 10° NNW 17:03:56 82° W 17:07:46 10° S
ARGOS 4.0 17:03:26 10° ESE 17:07:53 27° ENE 17:12:21 10° N
USA 234 3.9 17:03:07 11° ENE 17:09:05 45° N 17:15:15 10° WNW
Cosmos 2263 Rocket 4.2 17:05:16 10° W 17:09:38 22° NW 17:14:00 10° N
Cosmos 1328 4.2 17:06:08 10° SSE 17:09:51 39° E 17:13:35 10° NNE
Cosmos 1689 Rocket 3.8 17:12:03 15° ESE 17:12:03 15° ESE 17:13:24 10° SE
Cosmos 2026 Rocket 4.3 17:05:56 10° SSE 17:11:42 44° E 17:17:35 10° NNE
X-37B 1.6 17:09:03 10° WSW 17:12:05 41° S 17:14:46 12° ESE
H-2A R/B 2.4 17:10:01 10° N 17:14:24 68° WNW 17:18:39 10° SSW
CZ-2C R/B 4.1 17:12:13 11° NE 17:15:25 17° E 17:19:01 10° SE
Cosmos 1553 Rocket 4.5 17:10:32 10° N 17:16:28 38° ENE 17:22:17 10° SE
CZ-2D R/B 3.2 17:12:43 10° SSE 17:16:31 66° ENE 17:20:20 10° N
Cosmos 1602 Rocket 3.6 17:12:44 10° S 17:17:00 58° E 17:21:20 10° NNE
CZ-4 R/B 4.4 17:15:29 10° SSE 17:19:34 63° ENE 17:23:42 10° N
Cosmos 405 3.1 17:17:57 10° N 17:21:24 48° ENE 17:24:48 10° SSE
NOSS 2-1 (E) 2.8 17:18:14 10° SSW 17:21:32 68° SE 17:23:58 18° NE
SJ 16-02 2.3 17:18:20 10° SW 17:22:35 47° WNW 17:26:51 10° NNE
YAOGAN 1 2.9 17:18:49 10° SE 17:22:53 42° ENE 17:26:59 10° N
Helios 1A Rocket 3.5 17:23:56 10° SE 17:27:43 36° ENE 17:31:32 10° N
CSL-04 DEB 4.4 17:24:04 10° NNE 17:28:14 88° WNW 17:32:16 10° SSW
Cosmos 1898 Rocket 3.4 17:25:27 10° SSW 17:30:42 81° ESE 17:35:58 10° NNE
Cosmos 1825 Rocket 4.1 17:28:29 10° SSE 17:32:27 35° E 17:36:30 10° NNE
Cosmos 1939 Rocket 3.7 17:28:27 10° S 17:32:28 55° W 17:36:27 10° NNW
Cosmos 1680 Rocket 4.4 17:28:52 10° NNW 17:33:57 52° WSW 17:38:59 10° S
Okean O Rocket 3.4 17:29:58 10° SSW 17:34:02 35° W 17:38:06 10° NNW
Cosmos 1812 Rocket 3.5 17:30:12 10° N 17:34:37 86° W 17:38:58 10° S
CZ-4C R/B 4.1 17:30:07 10° NW 17:34:45 22° N 17:39:09 13° NE
Meteor 1-21 Rocket 4.5 17:30:40 10° SSW 17:36:11 72° WNW 17:41:48 10° N
CSL-04 Debris 4.4 17:33:21 10° SE 17:38:26 45° ENE 17:43:33 10° N
Cosmos 2195 Rocket 4.5 17:32:41 10° S 17:39:01 80° E 17:45:23 10° N
Cosmos 1833 Rocket 2.6 17:36:21 10° NNW 17:42:00 78° ENE 17:47:37 10° SSE
Cosmos 2344 4.3 17:32:57 10° NW 17:42:07 85° NE 17:54:59 10° SE
S3M 4.3 17:36:42 10° N 17:42:25 39° ENE 17:48:07 10° SE
SKYMED 2 3.6 17:38:59 10° NNE 17:43:21 81° WNW 17:47:41 10° SSW
Okean-O 2.5 17:39:22 10° SSE 17:43:46 70° ENE 17:48:13 10° N
CZ-4B R/B 2.0 17:43:56 10° N 17:47:12 55° WNW 17:50:22 10° SSW
Cosmos 1428 Rocket 4.4 17:41:36 10° S 17:47:53 78° E 17:54:14 10° NNE
Cosmos 2098 Rocket 4.3 17:45:13 10° S 17:52:36 76° E 17:59:46 10° NNE
Cosmos 1937 Rocket 3.5 17:49:35 10° SSW 17:54:55 88° WNW 18:00:15 10° NNE
MOS 1 Rocket 3.2 17:50:57 10° N 17:55:15 76° WNW 17:59:34 10° SSW
COSMOS 2406 3.4 17:50:18 10° NNW 17:56:06 76° WSW 18:01:50 10° SSE
Meteor 1-27 4.1 17:50:49 10° N 17:56:26 65° ENE 18:01:57 10° SSE
Cosmos 1953 Rocket 3.8 17:54:08 10° SSE 17:58:13 42° E 17:58:46 40° ENE
Cosmos 1703 4.5 17:54:37 10° SSW 17:58:19 42° WNW 18:02:02 10° N
H-2A R/B 1.9 17:54:11 10° SSE 17:59:15 88° ENE 18:04:30 10° NNW
CZ-4 R/B 1.5 17:55:18 10° S 17:59:19 73° WSW 18:03:18 10° NNW
Cosmos 2082 Rocket 2.2 17:53:57 10° NNW 17:59:38 62° ENE 18:03:50 18° SE
Cosmos 1844 Rocket 4.2 17:55:16 10° WSW 18:00:20 33° NW 18:05:24 10° NNE
NOSS 2-1 (C) 4.2 18:07:40 10° WSW 18:10:47 37° NW 18:11:52 29° N
USA 290 3.1 18:07:43 10° NW 18:10:50 48° WSW 18:13:03 17° S
Cosmos 2292 Rocket 3.7 18:08:23 10° S 18:12:41 49° ESE 18:12:41 49° ESE
Meteor 2-19 Rocket 4.4 18:08:47 10° S 18:14:57 86° W 18:21:10 10° N
NOSS 2-1 (D) 4.4 18:13:42 10° WSW 18:16:46 33° NW 18:17:38 29° N
MetOp-A 4.4 18:17:37 44° ENE 18:17:37 44° ENE 18:22:40 10° N
ATLAS 5 CENTAUR R/B 3.9 18:15:20 10° NW 18:18:10 15° N 18:19:32 14° NNE
Cosmos 1346 Rocket 2.8 18:16:02 10° SSW 18:19:58 77° WNW 18:21:32 35° N
CSL-04 Rocket 3.6 18:15:24 10° SSE 18:20:51 89° ENE 18:26:26 10° NNW
ERS-2 3.0 18:20:14 19° N 18:22:34 49° WNW 18:26:05 10° SW
HJ-1C 4.0 18:27:14 53° WNW 18:27:14 53° WNW 18:30:08 10° NNW
Cosmos 2278 Rocket 2.2 18:21:48 10° SSW 18:27:29 82° WNW 18:30:40 28° NNE
SL-08 RB Rocket 3.5 18:28:06 42° SSE 18:29:37 85° E 18:34:08 10° NNW
Meteor 2-2 Rocket 4.3 18:24:06 10° N 18:30:01 61° ENE 18:31:48 43° SE
COSMO-SKYMED 1 4.5 18:27:29 10° N 18:31:14 29° WNW 18:34:58 10° SW
Cosmos-2242 4.4 18:30:05 10° NNW 18:34:06 39° W 18:38:07 10° SSW
NOSS 2-2 (E) 4.3 18:32:54 10° NW 18:38:14 69° NE 18:39:25 56° E
ISS -1.9 18:37:17 10° WNW 18:39:13 30° WNW 18:39:13 30° WNW
ATLAS 2AS CENTAUR R/B 4.1 18:35:55 10° NW 18:42:20 27° N 18:44:15 24° NNE
Ariane Rocket 4.2 18:48:49 30° N 18:48:49 30° N 18:51:28 10° N
ARGOS 3.9 18:42:38 10° S 18:47:52 53° W 18:53:09 10° NNW
X-37B 3.3 18:45:47 10° WSW 18:47:04 17° SW 18:47:04 17° SW
Cosmos 2266 Rocket 3.8 18:44:27 10° S 18:50:41 78° E 18:56:50 10° NNE
USA 234 3.6 18:50:27 46° NE 18:51:26 50° NNE 18:57:42 10° WNW
Cosmos 1809 Rocket 4.3 18:46:05 10° S 18:52:13 86° E 18:58:25 10° N
CZ-2C R/B 2.7 18:53:41 33° N 18:56:22 83° WNW 19:01:59 10° SSW
USA 281 4.2 19:08:46 31° NNE 19:08:46 31° NNE 19:12:47 10° NNW
Cosmos 1241 Rocket 4.4 19:01:36 10° SSW 19:07:48 80° SSE 19:07:48 80° SSE
NOSS 2-2 (D) 4.5 19:12:06 10° NW 19:16:48 72° NW 19:16:48 72° NW
Cosmos 2315 Rocket 4.0 19:11:45 10° N 19:17:23 72° NNW 19:17:23 72° NNW
CZ-4C R/B 3.9 19:19:38 10° NW 19:24:20 29° N 19:24:20 29° N
Cosmos 2082 Rocket 4.2 19:38:44 10° NW 19:43:17 25° WSW 19:45:48 18° SW
Cosmos 2278 Rocket 4.4 20:08:21 10° W 20:12:29 20° NW 20:12:34 20° NW
ATLAS 2AS CENTAUR R/B 4.4 20:27:59 10° NW 20:31:42 28° NNW 20:31:42 28° NNW
